Location: Ferintosh
(52.7647°N, 112.9692°W)
Time: 15:10:05
(UTC+00:00)

Transit 2A - Pass Details

Date: 19 May 2024
Orbit: 592 x 959 km, 66.7° (Epoch: 23 June)

Event Time Altitude Azimuth Distance (km) Brightness Sun altitude
Rises 15:09:37 0° 319° (NW) 3,338 8.9 31.0°
Reaches altitude 10° 15:11:58 10° 318° (NW) 2,456 8.3 31.3°
Maximum altitude 15:17:42 76° 234° (SW) 922 6.8 32.2°
Drops below altitude 10° 15:23:53 10° 150° (SSE) 2,643 9.4 33.1°
Sets 15:26:29 0° 149° (SSE) 3,608 10.0 33.5°
